Location: Sungai Dangang
(2.7500°N, 113.8333°E)
Time: 21:58:31
(UTC+00:00)

Cosmos 2098 Rocket - Pass Details

Date: 16 May 2021
Orbit: 366 x 1178 km, 82.9° (Epoch: 15 June)

Event Time Altitude Azimuth Distance (km) Brightness Sun altitude
Rises 21:21:18 0° 182° (S) 3,270 6.5 -13.1°
Reaches altitude 10° 21:23:28 10° 181° (S) 2,452 5.9 -12.6°
Maximum altitude 21:29:10 84° 93° (E) 980 4.1 -11.3°
Drops below altitude 10° 21:36:03 10° 5° (N) 2,945 6.9 -9.7°
Sets 21:38:51 0° 5° (N) 3,969 7.5 -9.0°
